Hourly Data Report for October 30, 2016

All times are specified in Local Standard Time (LST). Add 1 hour to adjust for Daylight Saving Time where and when it is observed.

PETAWAWA AWOS 2
ONTARIO

45°57'00.000" N
77°19'00.000" W
130.10 m
6106396
71625
YWA

Download Data

Hourly Data (October 2016)
Hourly Data Report for October 30, 2016
Temp Definition
°C
Dew Point Temp Definition
°C
Rel Hum Definition
%
Wind Dir Definition
10's deg

Wind Spd Definition
km/h
Visibility Definition
km
Stn Press Definition
kPa
Hmdx Definition


Wind Chill Definition


Weather Definition


TIME
00:00 5.7 4.6 93 34 15 14.5 99.79     LegendNANA
01:00 5.2 2.6 83 35 11 14.5 99.82     LegendNANA
02:00 4.6 2.6 87 32 11 14.5 99.88     LegendNANA
03:00 4.4 3.0 91 31 7 14.5 99.91     LegendNANA
04:00 3.9 2.7 92 33 9 14.5 99.92     LegendNANA
05:00 3.7 1.3 84 34 13 14.5 99.98     LegendNANA
06:00 2.2 -0.1 85 33 11 14.5 100.01     LegendNANA
07:00 3.1 -0.1 80 36 17 14.5 100.01     LegendNANA
08:00 2.8 0.1 82 32 11 14.5 100.09     LegendNANA
09:00 2.5 0.7 88 35 13 14.5 100.14     LegendNANA
10:00 3.5 -0.2 77 34 17 14.5 100.15     LegendNANA
11:00 3.9 0.7 80 32 11 14.5 100.14     LegendNANA
12:00 4.5 -0.1 72 33 15 14.5 100.10     LegendNANA
13:00 5.0 0.0 70 33 13 14.5 100.07     LegendNANA
14:00 5.0 -0.3 68 32 20 14.5 100.10     LegendNANA
15:00 4.7 0.3 73 34 19 14.5 100.15     LegendNANA
16:00 4.5 1.4 80 34 19 14.5 100.20     Drizzle
17:00 3.3 0.6 82 31 7 14.5 100.27     LegendNANA
18:00 3.7 1.2 84 28 7 14.5 100.37     Rain
19:00 3.9 1.2 82 33 13 14.5 100.42     Drizzle
20:00 2.9 0.6 85 32 15 14.5 100.45     LegendNANA
21:00 2.1 0.0 86 30 7 14.5 100.48     LegendNANA
22:00 1.6 0.1 90 28 6 14.5 100.52     LegendNANA
23:00 1.3 0.1 92 28 6 14.5 100.54     LegendNANA

Notes on Data Quality.

Legend

  • E = Estimated
  • M = Missing
  • NA = Not Available
  • ‡ = Partner data that is not subject to review by the National Climate Archives
Date modified: